Date Time,Air Temp,Sky Temp,Clarity,Light Level,Rain Sensor,Readings
2011-04-16 00:00:41,17.8,3.8,14.0,0.3,2.3,111
2011-04-16 00:05:41,17.8,4.2,13.6,0.3,2.2,112
2011-04-16 00:10:41,17.8,4.3,13.5,0.3,1.9,112
2011-04-16 00:15:41,17.8,4.4,13.4,0.3,1.8,112
2011-04-16 00:20:41,17.9,4.5,13.4,0.3,1.8,112
2011-04-16 00:25:41,17.8,3.8,14.0,0.3,1.9,112
2011-04-16 00:30:41,17.7,3.0,14.7,0.3,2.3,111
2011-04-16 00:35:41,17.6,2.6,15.0,0.3,2.3,111
2011-04-16 00:40:41,17.5,2.4,15.1,0.3,2.3,112
2011-04-16 00:45:41,17.4,2.2,15.2,0.3,2.3,110
2011-04-16 00:50:41,17.3,2.1,15.2,0.3,2.3,110
2011-04-16 00:55:41,17.2,2.1,15.1,0.3,2.3,111
2011-04-16 01:00:41,17.1,1.9,15.2,0.3,2.3,110
2011-04-16 01:05:41,17.0,1.9,15.2,0.3,2.3,111
2011-04-16 01:10:42,17.0,1.7,15.2,0.3,2.3,111
2011-04-16 01:15:42,16.9,1.5,15.5,0.3,2.3,111
2011-04-16 01:20:42,16.9,1.2,15.7,0.3,2.3,111
2011-04-16 01:25:42,16.9,1.0,15.9,0.3,2.3,111
2011-04-16 01:30:42,16.9,1.0,15.9,0.3,2.3,112
2011-04-16 01:35:42,16.9,1.3,15.6,0.3,2.3,111
2011-04-16 01:40:42,16.8,1.3,15.6,0.3,2.3,111
2011-04-16 01:45:42,16.8,1.2,15.6,0.3,2.3,111
2011-04-16 01:50:42,16.8,1.2,15.7,0.3,2.3,111
2011-04-16 01:55:42,16.8,1.4,15.4,0.3,2.3,111
2011-04-16 02:00:42,16.8,1.6,15.3,0.2,2.4,111
2011-04-16 02:05:42,16.8,1.8,15.0,0.2,2.6,111
2011-04-16 02:10:42,16.8,2.0,14.8,0.2,2.6,110
2011-04-16 02:15:42,16.8,1.9,14.9,0.2,2.5,111
2011-04-16 02:20:42,16.8,2.3,14.5,0.2,2.5,111
2011-04-16 02:25:42,16.9,2.9,14.0,0.2,2.3,111
2011-04-16 02:30:42,16.9,2.8,14.2,0.2,2.3,111
2011-04-16 02:35:42,16.9,2.4,14.6,0.2,2.3,112
2011-04-16 02:40:42,16.9,2.1,14.8,0.2,2.3,111
2011-04-16 02:45:42,16.9,2.0,14.9,0.2,2.3,109
2011-04-16 02:50:42,16.9,2.1,14.7,0.2,2.3,110
2011-04-16 02:55:42,16.8,2.0,14.8,0.2,2.4,111
2011-04-16 03:00:42,16.8,2.1,14.7,0.2,2.7,110
2011-04-16 03:05:42,16.8,1.9,14.9,0.2,2.6,110
2011-04-16 03:10:42,16.8,1.9,14.9,0.2,2.7,111
2011-04-16 03:15:42,16.8,1.9,14.9,0.1,2.7,111
2011-04-16 03:20:42,16.8,2.0,14.8,0.1,2.7,111
2011-04-16 03:25:42,16.8,2.2,14.6,0.1,2.7,110
2011-04-16 03:30:42,16.8,2.6,14.2,0.1,2.7,111
2011-04-16 03:35:42,16.8,2.4,14.4,0.1,2.6,111
2011-04-16 03:40:42,16.8,2.0,14.8,0.1,2.7,111
2011-04-16 03:45:42,16.8,2.0,14.8,0.1,2.5,110
2011-04-16 03:50:42,16.7,2.0,14.7,0.1,2.4,109
2011-04-16 03:55:42,16.7,2.1,14.6,0.1,2.3,111
2011-04-16 04:00:42,16.7,2.3,14.5,0.1,2.3,111
2011-04-16 04:05:42,16.7,2.4,14.4,0.1,2.3,111
2011-04-16 04:10:42,16.8,2.3,14.5,0.1,2.4,111
2011-04-16 04:15:42,16.8,2.4,14.4,0.1,2.4,112
2011-04-16 04:20:42,16.8,2.4,14.3,0.1,2.4,111
2011-04-16 04:25:42,16.8,2.5,14.2,0.1,2.4,111
2011-04-16 04:30:42,16.8,2.7,14.1,0.1,2.4,112
2011-04-16 04:35:42,16.8,2.9,13.9,0.1,2.4,111
2011-04-16 04:40:42,16.8,3.5,13.3,0.1,2.5,111
2011-04-16 04:45:42,16.9,4.0,12.8,0.1,2.7,112
2011-04-16 04:50:42,16.9,4.5,12.4,0.1,2.4,111
2011-04-16 04:55:42,17.1,4.6,12.4,0.1,2.3,112
2011-04-16 05:00:42,17.1,4.7,12.4,0.1,2.3,111
2011-04-16 05:05:42,17.1,4.6,12.5,0.2,2.3,111
2011-04-16 05:10:42,17.1,4.8,12.3,0.2,2.3,112
2011-04-16 05:15:42,17.2,4.7,12.5,0.4,2.3,112
2011-04-16 05:20:42,17.2,4.7,12.5,0.7,2.3,111
2011-04-16 05:25:42,17.2,4.1,13.1,1.2,2.3,112
2011-04-16 05:30:42,17.0,3.3,13.7,2.2,2.3,111
2011-04-16 05:35:42,16.9,3.3,13.6,4.0,2.3,111
2011-04-16 05:40:42,16.9,3.4,13.5,6.9,2.4,112
2011-04-16 05:45:42,16.9,3.6,13.3,11.5,2.5,111
2011-04-16 05:50:42,16.9,3.9,13.0,16.9,2.4,112
2011-04-16 05:55:42,16.9,4.0,12.9,21.7,2.3,112
2011-04-16 06:00:42,17.0,3.9,13.0,25.2,2.3,111
2011-04-16 06:05:42,17.1,4.1,13.0,27.6,2.3,112
2011-04-16 06:10:42,17.1,4.0,13.1,29.1,2.3,112
2011-04-16 06:15:42,17.3,4.4,12.9,30.0,2.3,112
2011-04-16 06:20:42,17.4,4.5,12.9,30.5,2.3,112
2011-04-16 06:25:42,17.4,4.0,13.4,30.9,2.3,112
2011-04-16 06:30:42,17.4,4.3,13.1,31.2,2.3,112
2011-04-16 06:35:42,17.5,4.9,12.6,31.4,2.3,111
2011-04-16 06:40:42,17.5,4.9,12.6,31.6,2.3,111
2011-04-16 06:45:42,17.6,4.5,13.0,31.8,2.3,112
2011-04-16 06:50:42,17.5,4.1,13.5,31.9,2.3,112
2011-04-16 06:55:42,17.6,4.5,13.0,32.0,2.3,111
2011-04-16 07:00:42,17.6,4.6,13.0,32.0,2.3,112
2011-04-16 07:05:42,17.6,4.8,12.8,32.1,2.3,111
2011-04-16 07:10:42,17.7,4.6,13.1,32.1,2.3,112
2011-04-16 07:15:42,17.7,4.1,13.6,32.2,2.3,111
2011-04-16 07:20:42,17.8,4.3,13.4,32.2,2.3,113
2011-04-16 07:25:42,17.8,4.6,13.2,32.2,2.3,111
2011-04-16 07:30:42,18.0,4.4,13.6,32.3,2.3,112
2011-04-16 07:35:42,18.1,4.1,14.0,32.3,2.3,112
2011-04-16 07:40:42,18.2,4.2,14.1,32.3,2.3,112
2011-04-16 07:45:42,18.4,4.3,14.1,32.3,2.0,112
2011-04-16 07:50:42,18.6,4.4,14.1,32.3,1.8,112
2011-04-16 07:55:42,18.7,4.7,13.9,32.4,1.9,111
2011-04-16 08:00:42,18.8,4.6,14.2,32.4,2.2,112
2011-04-16 08:05:42,18.8,3.9,14.9,32.4,2.2,111
2011-04-16 08:10:42,18.8,4.6,14.2,32.4,2.2,112
2011-04-16 08:15:42,18.9,4.7,14.2,32.4,2.3,111
2011-04-16 08:20:42,19.1,4.8,14.3,32.4,2.3,112
2011-04-16 08:25:42,19.3,4.8,14.5,32.5,2.4,111
2011-04-16 08:30:42,19.5,4.8,14.7,32.5,2.5,112
2011-04-16 08:35:42,19.8,4.8,15.0,32.5,2.7,111
2011-04-16 08:40:42,19.9,4.2,15.7,32.5,2.7,112
2011-04-16 08:45:42,20.0,4.2,15.8,32.5,2.7,112
2011-04-16 08:50:42,20.2,4.8,15.4,32.5,2.6,111
2011-04-16 08:55:42,20.3,4.6,15.7,32.5,2.3,112
2011-04-16 09:00:42,20.5,5.1,15.4,32.5,2.3,112
2011-04-16 09:05:42,20.7,5.3,15.4,32.5,2.3,112
2011-04-16 09:10:42,21.0,5.3,15.7,32.5,2.3,112
2011-04-16 09:15:42,21.3,5.4,16.0,32.5,2.3,112
2011-04-16 09:20:42,21.5,5.3,16.3,32.5,2.4,112
2011-04-16 09:25:42,21.6,5.4,16.2,32.5,2.4,112
2011-04-16 09:30:42,21.8,5.7,16.2,32.5,2.3,112
2011-04-16 09:35:42,22.0,5.6,16.4,32.5,2.3,111
2011-04-16 09:40:42,22.1,5.7,16.4,32.5,2.3,112
2011-04-16 09:45:42,22.3,5.6,16.7,32.5,2.3,112
2011-04-16 09:50:42,22.4,5.9,16.5,32.5,2.3,111
2011-04-16 09:55:42,22.8,6.1,16.7,32.5,2.3,112
2011-04-16 10:00:42,23.1,6.2,16.9,32.5,2.3,111
2011-04-16 10:05:42,23.2,5.7,17.5,32.5,2.3,112
2011-04-16 10:10:42,23.2,5.8,17.3,32.6,2.3,111
2011-04-16 10:15:42,23.1,5.6,17.5,32.6,2.3,112
2011-04-16 10:20:42,23.0,5.3,17.7,32.6,2.3,112
2011-04-16 10:25:42,22.8,5.4,17.4,32.6,2.3,111
2011-04-16 10:30:42,22.8,5.5,17.3,32.6,2.3,112
2011-04-16 10:35:42,23.0,5.7,17.3,32.6,2.3,111
2011-04-16 10:40:42,23.0,5.0,18.0,32.6,2.3,112
2011-04-16 10:45:42,23.1,5.4,17.6,32.6,2.3,112
2011-04-16 10:50:42,23.3,4.8,18.4,32.6,2.3,112
2011-04-16 10:55:42,23.2,4.9,18.2,32.6,2.3,112
2011-04-16 11:00:42,23.2,4.8,18.4,32.6,2.3,111
2011-04-16 11:05:42,23.1,4.9,18.3,32.6,2.3,112
2011-04-16 11:10:42,23.2,5.2,18.0,32.6,2.3,112
2011-04-16 11:15:42,23.6,6.1,17.5,32.6,2.3,111
2011-04-16 11:20:42,24.2,5.7,18.6,32.6,2.2,112
2011-04-16 11:25:42,24.2,5.2,19.0,32.6,2.1,111
2011-04-16 11:30:42,24.1,6.4,17.7,32.6,2.2,112
2011-04-16 11:35:42,24.7,7.2,17.6,32.6,2.3,111
2011-04-16 11:40:42,25.5,6.2,19.4,32.6,2.4,112
2011-04-16 11:45:42,27.0,6.5,20.5,32.6,2.3,111
2011-04-16 11:50:42,29.1,4.9,24.2,32.6,2.3,112
2011-04-16 11:55:42,30.1,4.3,25.8,32.6,2.3,112
2011-04-16 12:00:42,30.6,4.8,25.8,32.6,2.3,111
2011-04-16 12:05:42,31.3,5.6,25.7,32.6,2.3,112
2011-04-16 12:10:42,31.9,4.8,27.2,32.6,2.3,112
2011-04-16 12:15:42,31.9,3.7,28.3,32.6,2.3,112
2011-04-16 12:20:42,31.9,3.9,28.0,32.6,2.3,111
2011-04-16 12:25:42,31.9,3.5,28.4,32.6,2.3,112
2011-04-16 12:30:42,31.9,3.6,28.2,32.6,2.3,111
2011-04-16 12:35:42,31.5,3.4,28.2,32.6,2.3,111
2011-04-16 12:40:42,31.4,3.5,27.9,32.6,2.3,111
2011-04-16 12:45:42,31.7,3.4,28.3,32.6,2.3,112
2011-04-16 12:50:42,32.0,3.7,28.2,32.6,2.3,111
2011-04-16 12:55:42,31.9,2.6,29.3,32.6,2.3,111
2011-04-16 13:00:42,31.7,4.2,27.5,32.6,2.3,112
2011-04-16 13:05:42,32.2,5.3,26.9,32.6,2.4,112
2011-04-16 13:10:42,32.8,5.9,26.9,32.6,2.1,111
2011-04-16 13:15:42,33.7,7.1,26.6,32.6,1.3,112
2011-04-16 13:20:42,34.0,3.5,30.5,32.6,1.2,111
2011-04-16 13:25:42,33.8,7.3,26.5,32.6,1.2,111
2011-04-16 13:30:42,34.4,7.0,27.4,32.6,1.5,112
2011-04-16 13:35:42,34.0,6.9,27.2,32.6,1.4,111
2011-04-16 13:40:42,33.1,6.4,26.7,32.6,1.2,112
2011-04-16 13:45:42,32.1,6.1,26.0,32.6,1.5,111
2011-04-16 13:50:42,31.3,7.0,24.2,32.6,2.2,111
2011-04-16 13:55:42,30.9,8.3,22.7,32.6,2.3,112
2011-04-16 14:00:42,30.8,6.8,24.0,32.6,2.3,112
2011-04-16 14:05:42,30.2,6.4,23.7,32.6,2.3,111
2011-04-16 14:10:42,29.6,5.9,23.6,32.5,2.3,112
2011-04-16 14:15:42,29.0,6.1,23.0,32.5,2.3,111
2011-04-16 14:20:42,28.5,6.3,22.3,32.5,2.3,112
2011-04-16 14:25:42,28.3,5.9,22.4,32.5,2.3,111
2011-04-16 14:30:42,28.1,6.6,21.5,32.5,2.3,111
2011-04-16 14:35:42,28.0,5.4,22.6,32.5,2.3,112
2011-04-16 14:40:42,27.7,5.5,22.2,32.5,2.3,112
2011-04-16 14:45:42,27.4,5.8,21.7,32.5,2.3,112
2011-04-16 14:50:42,27.4,6.0,21.4,32.5,2.3,112
2011-04-16 14:55:42,27.3,6.0,21.3,32.5,2.3,111
2011-04-16 15:00:42,27.2,6.3,20.9,32.4,2.3,111
2011-04-16 15:05:42,27.4,6.4,21.0,32.4,2.3,111
2011-04-16 15:10:42,26.7,6.7,20.0,32.4,2.3,112
2011-04-16 15:15:42,23.9,6.7,17.2,32.4,2.3,111
2011-04-16 15:20:42,22.5,6.3,16.2,32.4,2.3,111
2011-04-16 15:25:42,21.9,6.6,15.3,32.4,2.3,112
2011-04-16 15:30:42,21.7,7.3,14.4,32.4,2.3,111
2011-04-16 15:35:42,21.7,7.3,14.4,32.4,2.3,112
2011-04-16 15:40:42,21.6,7.2,14.4,32.4,2.3,111
2011-04-16 15:45:42,21.5,7.1,14.4,32.4,2.3,112
2011-04-16 15:50:42,21.5,6.9,14.5,32.5,2.3,111
2011-04-16 15:55:42,21.3,6.4,15.0,32.5,2.3,112
2011-04-16 16:00:42,21.2,6.5,14.7,32.5,2.3,111
2011-04-16 16:05:42,21.2,6.8,14.4,32.5,2.3,112
2011-04-16 16:10:42,21.4,6.9,14.5,32.5,2.3,111
2011-04-16 16:15:42,21.8,6.2,15.6,32.5,2.3,112
2011-04-16 16:20:43,22.2,5.2,17.0,32.6,2.3,111
2011-04-16 16:25:43,22.6,4.7,17.9,32.6,2.3,112
2011-04-16 16:30:43,22.8,5.2,17.7,32.6,2.3,112
2011-04-16 16:35:43,23.0,6.0,17.0,32.6,2.3,111
2011-04-16 16:40:43,22.9,6.3,16.5,32.5,2.3,111
2011-04-16 16:45:43,22.7,6.5,16.3,32.5,2.3,111
2011-04-16 16:50:43,22.5,6.3,16.2,32.5,2.3,112
2011-04-16 16:55:43,22.2,6.6,15.6,32.5,2.3,111
2011-04-16 17:00:43,21.9,6.5,15.5,32.5,2.3,111
2011-04-16 17:05:43,21.7,6.8,15.0,32.4,2.3,112
2011-04-16 17:10:43,21.6,6.9,14.7,32.4,2.3,111
2011-04-16 17:15:43,21.5,7.0,14.5,32.4,2.3,112
2011-04-16 17:20:43,21.4,7.1,14.3,32.3,2.3,111
2011-04-16 17:25:43,21.3,7.0,14.2,32.3,2.3,112
2011-04-16 17:30:43,21.1,6.2,14.8,32.3,2.3,111
2011-04-16 17:35:43,20.9,6.6,14.3,32.4,2.3,112
2011-04-16 17:40:43,20.7,6.1,14.6,32.4,2.3,111
2011-04-16 17:45:43,20.6,6.5,14.1,32.4,2.3,111
2011-04-16 17:50:43,20.5,6.5,14.0,32.4,2.3,111
2011-04-16 17:55:43,20.4,6.6,13.9,32.3,2.4,111
2011-04-16 18:00:43,20.4,6.6,13.8,32.3,2.6,111
2011-04-16 18:05:43,20.5,6.5,14.0,32.3,2.5,111
2011-04-16 18:10:43,20.4,6.3,14.0,32.3,2.5,112
2011-04-16 18:15:43,20.3,6.5,13.8,32.3,2.5,111
2011-04-16 18:20:43,20.4,6.2,14.2,32.4,2.4,111
2011-04-16 18:25:43,20.5,5.3,15.2,32.4,2.5,112
2011-04-16 18:30:43,21.4,0.1,21.3,32.4,2.4,111
2011-04-16 18:35:43,24.4,-4.4,28.8,32.4,2.3,112
2011-04-16 18:40:43,25.2,-6.9,32.0,32.4,2.3,111
2011-04-16 18:45:43,25.3,-7.9,33.2,32.4,2.3,111
2011-04-16 18:50:43,25.2,-8.1,33.4,32.4,2.3,112
2011-04-16 18:55:43,25.2,-7.7,32.9,32.4,2.3,112
2011-04-16 19:00:43,25.6,-7.2,32.7,32.5,2.3,112
2011-04-16 19:05:43,26.0,-7.2,33.2,32.5,2.3,111
2011-04-16 19:10:43,26.4,-7.0,33.4,32.4,2.3,112
2011-04-16 19:15:43,26.6,-7.3,34.0,32.4,2.2,111
2011-04-16 19:20:43,26.5,-8.0,34.5,32.3,2.3,111
2011-04-16 19:25:43,26.0,-8.4,34.4,32.3,2.3,113
2011-04-16 19:30:43,25.7,-8.2,33.9,32.3,2.3,111
2011-04-16 19:35:43,25.5,-8.8,34.3,32.2,2.3,112
2011-04-16 19:40:43,24.8,-9.0,33.8,32.1,2.3,112
2011-04-16 19:45:43,24.9,-8.8,33.8,32.0,2.3,112
2011-04-16 19:50:43,24.1,-8.9,33.1,31.8,2.3,112
2011-04-16 19:55:43,24.2,-8.8,33.0,31.5,2.3,112
2011-04-16 20:00:43,24.0,-8.9,32.9,31.1,2.3,112
2011-04-16 20:05:43,23.7,-9.2,32.9,30.5,2.4,112
2011-04-16 20:10:43,23.5,-8.5,32.0,29.5,2.5,112
2011-04-16 20:15:43,23.4,-8.2,31.6,27.8,2.4,112
2011-04-16 20:20:43,23.4,-5.6,29.0,24.8,2.4,112
2011-04-16 20:25:43,23.5,-2.3,25.8,19.5,2.4,112
2011-04-16 20:30:43,23.1,-1.5,24.6,13.3,2.4,111
2011-04-16 20:35:43,23.6,-2.7,26.4,8.2,2.4,112
2011-04-16 20:40:43,23.6,-4.2,27.9,5.0,2.4,112
2011-04-16 20:45:43,23.6,-4.6,28.2,2.9,2.3,112
2011-04-16 20:50:43,23.6,-3.2,26.8,1.7,2.3,111
2011-04-16 20:55:43,23.6,-1.7,25.4,1.0,2.3,112
2011-04-16 21:00:43,23.6,-1.5,25.1,0.6,2.4,112
2011-04-16 21:05:43,23.7,-1.6,25.2,0.4,2.3,112
2011-04-16 21:10:43,23.6,-2.2,25.8,0.3,2.3,111
2011-04-16 21:15:43,23.6,-1.5,25.1,0.3,2.3,112
2011-04-16 21:20:43,23.6,0.7,23.0,0.3,2.3,111
2011-04-16 21:25:43,23.7,0.2,23.5,0.3,2.3,112
2011-04-16 21:30:43,23.8,1.3,22.5,0.3,2.3,111
2011-04-16 21:35:43,24.0,-0.7,24.7,0.3,2.3,111
2011-04-16 21:40:43,23.3,-2.6,25.9,0.4,2.5,112
2011-04-16 21:45:43,23.4,-6.3,29.7,0.4,2.4,111
2011-04-16 21:50:43,23.2,-6.9,30.1,0.3,2.3,112
2011-04-16 21:55:43,23.2,-6.9,30.2,0.4,2.3,112
2011-04-16 22:00:43,23.3,-8.1,31.4,0.4,2.4,111
2011-04-16 22:05:43,23.1,-9.5,32.6,0.4,2.3,112
2011-04-16 22:10:43,22.8,-10.3,33.1,0.4,2.3,112
2011-04-16 22:15:43,22.6,-10.6,33.2,0.4,2.3,111
2011-04-16 22:20:43,22.0,-10.7,32.7,0.5,2.3,111
2011-04-16 22:25:43,22.4,-10.6,33.0,0.5,2.3,111
2011-04-16 22:30:43,22.4,-10.6,33.0,0.5,2.3,111
2011-04-16 22:35:43,22.5,-10.5,33.0,0.5,2.3,112
2011-04-16 22:40:43,22.5,-10.4,32.9,0.5,2.3,112
2011-04-16 22:45:43,22.4,-10.5,32.8,0.5,2.3,112
2011-04-16 22:50:43,22.3,-10.5,32.9,0.6,2.3,111
2011-04-16 22:55:43,22.3,-10.8,33.1,0.6,2.3,112
2011-04-16 23:00:43,22.3,-10.9,33.2,0.6,2.3,112
2011-04-16 23:05:43,22.3,-10.8,33.1,0.6,2.3,111
2011-04-16 23:10:43,22.3,-10.9,33.2,0.6,2.3,112
2011-04-16 23:15:43,22.3,-11.0,33.3,0.6,2.3,112
2011-04-16 23:20:43,22.3,-10.9,33.2,0.7,2.3,113
2011-04-16 23:25:43,22.2,-11.0,33.2,0.7,2.3,112
2011-04-16 23:30:43,22.2,-10.9,33.1,0.7,2.3,112
2011-04-16 23:35:43,22.2,-11.0,33.2,0.7,2.3,112
2011-04-16 23:40:43,22.3,-11.0,33.2,0.8,2.3,112
2011-04-16 23:45:43,22.3,-10.9,33.2,0.8,2.3,112
2011-04-16 23:50:43,22.3,-11.0,33.3,0.8,2.3,112
2011-04-16 23:55:43,22.3,-10.9,33.2,0.8,2.3,112
